"Period start","avg(HW err(1)/warn(2) (#))","avg(Visibility (m))","avg(Weather code (#))","avg(Precip intensity (mm/h))","min(HW err(1)/warn(2) (#))","max(HW err(1)/warn(2) (#))","std(HW err(1)/warn(2) (#))","med(HW err(1)/warn(2) (#))","min(Visibility (m))","max(Visibility (m))","std(Visibility (m))","med(Visibility (m))","min(Weather code (#))","max(Weather code (#))","std(Weather code (#))","med(Weather code (#))","min(Precip intensity (mm/h))","max(Precip intensity (mm/h))","std(Precip intensity (mm/h))","med(Precip intensity (mm/h))"
2014-05-28 00:00:00,2,43428,0,0.00,2,2,0,2,38494,50000,3397,43316,0,0,0,0,0.00,0.00,0.00,0.00
2014-05-28 00:10:00,2,35915,0,0.00,2,2,0,2,17516,48446,10385,38286,0,0,0,0,0.00,0.00,0.00,0.00
2014-05-28 00:20:00,2,35252,0,0.00,2,2,0,2,14785,45719,10080,38191,0,0,0,0,0.00,0.00,0.00,0.00
2014-05-28 00:30:00,2,42623,0,0.00,2,2,0,2,35875,50000,4843,41512,0,0,0,0,0.00,0.00,0.00,0.00
2014-05-28 00:40:00,2,43624,0,0.00,2,2,0,2,33198,50000,6838,45846,0,0,0,0,0.00,0.00,0.00,0.00
2014-05-28 00:50:00,2,42466,0,0.00,2,2,0,2,30819,50000,6604,44732,0,0,0,0,0.00,0.00,0.00,0.00
2014-05-28 01:00:00,2,21797,0,0.00,2,2,0,2,6222,48698,14090,16365,0,0,0,0,0.00,0.00,0.00,0.00
2014-05-28 01:10:00,2,42908,0,0.00,2,2,0,2,32459,48591,3959,43440,0,0,0,0,0.00,0.00,0.00,0.00
2014-05-28 01:20:00,2,16797,0,0.00,2,2,0,2,4693,38703,9985,15800,0,0,0,0,0.00,0.00,0.00,0.00
2014-05-28 01:30:00,2,20932,0,0.00,2,2,0,2,10839,36008,9602,18206,0,0,0,0,0.00,0.00,0.00,0.00
2014-05-28 01:40:00,2,28692,0,0.00,2,2,0,2,21110,36365,4245,28092,0,0,0,0,0.00,0.00,0.00,0.00
2014-05-28 01:50:00,2,28971,0,0.00,2,2,0,2,13972,40029,8215,31556,0,0,0,0,0.00,0.00,0.00,0.00
2014-05-28 02:00:00,2,24050,0,0.00,2,2,0,2,8222,37637,9546,27578,0,0,0,0,0.00,0.00,0.00,0.00
2014-05-28 02:10:00,2,20604,0,0.00,2,2,0,2,15109,24690,2682,20439,0,0,0,0,0.00,0.00,0.00,0.00
2014-05-28 02:20:00,2,9408,2,0.00,2,2,0,2,5811,18778,4649,7196,0,10,4,0,0.00,0.00,0.00,0.00
2014-05-28 02:30:00,2,24814,7,0.00,2,2,0,2,10117,33314,6322,25968,0,10,5,10,0.00,0.00,0.00,0.00
2014-05-28 02:40:00,2,38523,0,0.00,2,2,0,2,31936,44149,4547,38916,0,0,0,0,0.00,0.00,0.00,0.00
2014-05-28 02:50:00,2,31642,0,0.00,2,2,0,2,21415,41246,5829,33272,0,0,0,0,0.00,0.00,0.00,0.00
2014-05-28 03:00:00,2,30466,0,0.00,2,2,0,2,20291,36792,5274,31530,0,0,0,0,0.00,0.00,0.00,0.00
2014-05-28 03:10:00,2,36652,0,0.00,2,2,0,2,30837,49043,5682,35354,0,0,0,0,0.00,0.00,0.00,0.00
2014-05-28 03:20:00,2,37438,0,0.00,2,2,0,2,33150,46972,4011,36058,0,0,0,0,0.00,0.00,0.00,0.00
2014-05-28 03:30:00,2,30944,0,0.00,2,2,0,2,24648,38813,3908,31744,0,0,0,0,0.00,0.00,0.00,0.00
2014-05-28 03:40:00,2,23830,0,0.00,2,2,0,2,11915,30697,6191,25678,0,0,0,0,0.00,0.00,0.00,0.00
2014-05-28 03:50:00,2,26372,0,0.00,2,2,0,2,16016,33922,6285,27886,0,0,0,0,0.00,0.00,0.00,0.00
2014-05-28 04:00:00,2,18441,19,0.02,2,2,0,2,2413,38908,14602,16048,0,41,18,10,0.00,0.10,0.03,0.00
2014-05-28 04:10:00,2,25705,4,0.00,2,2,0,2,5813,42433,12578,31093,0,10,5,0,0.00,0.00,0.00,0.00
2014-05-28 04:20:00,2,22922,0,0.00,2,2,0,2,9038,34224,7383,21560,0,0,0,0,0.00,0.00,0.00,0.00
2014-05-28 04:30:00,2,28910,0,0.00,2,2,0,2,18246,41385,7618,29162,0,0,0,0,0.00,0.00,0.00,0.00
2014-05-28 04:40:00,2,34859,0,0.00,2,2,0,2,29473,44536,5297,32310,0,0,0,0,0.00,0.00,0.00,0.00
2014-05-28 04:50:00,2,35112,0,0.00,2,2,0,2,28323,42205,4832,34170,0,0,0,0,0.00,0.00,0.00,0.00
2014-05-28 05:00:00,2,33711,0,0.00,2,2,0,2,25001,40780,4759,33680,0,0,0,0,0.00,0.00,0.00,0.00
2014-05-28 05:10:00,2,36116,0,0.00,2,2,0,2,28783,46539,4671,35122,0,0,0,0,0.00,0.00,0.00,0.00
2014-05-28 05:20:00,2,25254,0,0.00,2,2,0,2,7783,41068,11200,30542,0,0,0,0,0.00,0.00,0.00,0.00
2014-05-28 05:30:00,2,28336,0,0.00,2,2,0,2,18641,41455,8104,26368,0,0,0,0,0.00,0.00,0.00,0.00
2014-05-28 05:40:00,2,24006,0,0.00,2,2,0,2,7252,40049,12163,26537,0,0,0,0,0.00,0.00,0.00,0.00
2014-05-28 05:50:00,2,38195,0,0.00,2,2,0,2,33293,46926,3667,37646,0,0,0,0,0.00,0.00,0.00,0.00
2014-05-28 06:00:00,2,31039,0,0.00,2,2,0,2,22024,37072,3922,30384,0,0,0,0,0.00,0.00,0.00,0.00
2014-05-28 06:10:00,2,29140,0,0.00,2,2,0,2,22571,37513,4769,29392,0,0,0,0,0.00,0.00,0.00,0.00
2014-05-28 06:20:00,2,34900,0,0.00,2,2,0,2,28136,42095,4089,34226,0,0,0,0,0.00,0.00,0.00,0.00
2014-05-28 06:30:00,2,35114,0,0.00,2,2,0,2,29539,42070,3815,35262,0,0,0,0,0.00,0.00,0.00,0.00
2014-05-28 06:40:00,2,26624,0,0.00,2,2,0,2,11711,39109,8355,28696,0,0,0,0,0.00,0.00,0.00,0.00
2014-05-28 06:50:00,2,19866,8,0.01,2,2,0,2,5564,40576,13994,12101,0,40,16,0,0.00,0.10,0.03,0.00
2014-05-28 07:00:00,2,28289,12,0.00,2,2,0,2,10207,39591,8333,30612,0,41,19,0,0.00,0.00,0.00,0.00
2014-05-28 07:10:00,2,31362,0,0.00,2,2,0,2,26126,38109,3536,30894,0,0,0,0,0.00,0.00,0.00,0.00
2014-05-28 07:20:00,2,39587,0,0.00,2,2,0,2,34475,45099,3178,39622,0,0,0,0,0.00,0.00,0.00,0.00
2014-05-28 07:30:00,2,42008,0,0.00,2,2,0,2,29518,50000,7027,44958,0,0,0,0,0.00,0.00,0.00,0.00
2014-05-28 07:40:00,2,35409,0,0.00,2,2,0,2,23601,44054,5931,35643,0,0,0,0,0.00,0.00,0.00,0.00
2014-05-28 07:50:00,2,25990,0,0.00,2,2,0,2,22060,30383,2604,26608,0,0,0,0,0.00,0.00,0.00,0.00
2014-05-28 08:00:00,2,36001,0,0.00,2,2,0,2,22574,50000,9881,34216,0,0,0,0,0.00,0.00,0.00,0.00
2014-05-28 08:10:00,2,40140,0,0.00,2,2,0,2,31447,49432,5559,39546,0,0,0,0,0.00,0.00,0.00,0.00
2014-05-28 08:20:00,2,43560,0,0.00,2,2,0,2,34863,49468,5071,46470,0,0,0,0,0.00,0.00,0.00,0.00
2014-05-28 08:30:00,2,45725,0,0.00,2,2,0,2,38882,50000,3272,45935,0,0,0,0,0.00,0.00,0.00,0.00
2014-05-28 08:40:00,2,41776,0,0.00,2,2,0,2,36657,45386,3363,43145,0,0,0,0,0.00,0.00,0.00,0.00
2014-05-28 08:50:00,2,41911,0,0.00,2,2,0,2,35936,48462,3473,41591,0,0,0,0,0.00,0.00,0.00,0.00
2014-05-28 09:00:00,2,41382,0,0.00,2,2,0,2,27988,47896,5315,42702,0,0,0,0,0.00,0.00,0.00,0.00
2014-05-28 09:10:00,2,44788,0,0.00,2,2,0,2,40645,49417,2849,45159,0,0,0,0,0.00,0.00,0.00,0.00
2014-05-28 09:20:00,2,45006,0,0.00,2,2,0,2,39584,50000,3224,44840,0,0,0,0,0.00,0.00,0.00,0.00
2014-05-28 09:30:00,2,43506,0,0.00,2,2,0,2,36803,50000,3955,43838,0,0,0,0,0.00,0.00,0.00,0.00
2014-05-28 09:40:00,2,44505,0,0.00,2,2,0,2,34372,50000,5739,47174,0,0,0,0,0.00,0.00,0.00,0.00
2014-05-28 09:50:00,2,45648,0,0.00,2,2,0,2,39851,50000,3296,44924,0,0,0,0,0.00,0.00,0.00,0.00
2014-05-28 10:00:00,2,39090,0,0.00,2,2,0,2,30298,50000,6481,38808,0,0,0,0,0.00,0.00,0.00,0.00
2014-05-28 10:10:00,2,40385,0,0.00,2,2,0,2,36284,44016,2489,40269,0,0,0,0,0.00,0.00,0.00,0.00
2014-05-28 10:20:00,2,43811,0,0.00,2,2,0,2,29313,50000,5968,43950,0,0,0,0,0.00,0.00,0.00,0.00
2014-05-28 10:30:00,2,46806,0,0.00,2,2,0,2,36219,50000,4179,48502,0,0,0,0,0.00,0.00,0.00,0.00
2014-05-28 10:40:00,2,48564,0,0.00,2,2,0,2,43836,50000,2334,50000,0,0,0,0,0.00,0.00,0.00,0.00
2014-05-28 10:50:00,2,50000,0,0.00,2,2,0,2,50000,50000,0,50000,0,0,0,0,0.00,0.00,0.00,0.00
2014-05-28 11:00:00,2,48086,0,0.00,2,2,0,2,43118,50000,1976,48908,0,0,0,0,0.00,0.00,0.00,0.00
2014-05-28 11:10:00,2,48450,0,0.00,2,2,0,2,42576,50000,2420,50000,0,0,0,0,0.00,0.00,0.00,0.00
2014-05-28 11:20:00,2,47949,0,0.00,2,2,0,2,43619,50000,2313,48866,0,0,0,0,0.00,0.00,0.00,0.00
2014-05-28 11:30:00,2,48360,0,0.00,2,2,0,2,42247,50000,2469,49944,0,0,0,0,0.00,0.00,0.00,0.00
2014-05-28 11:40:00,2,48869,0,0.00,2,2,0,2,38984,50000,3296,50000,0,0,0,0,0.00,0.00,0.00,0.00
2014-05-28 11:50:00,2,44954,0,0.00,2,2,0,2,39349,50000,4120,45316,0,0,0,0,0.00,0.00,0.00,0.00
2014-05-28 12:00:00,2,48548,0,0.00,2,2,0,2,46412,50000,1518,49122,0,0,0,0,0.00,0.00,0.00,0.00
2014-05-28 12:10:00,2,47309,0,0.00,2,2,0,2,41837,50000,2369,47140,0,0,0,0,0.00,0.00,0.00,0.00
2014-05-28 12:20:00,2,44679,0,0.00,2,2,0,2,36217,49842,4202,45294,0,0,0,0,0.00,0.00,0.00,0.00
2014-05-28 12:30:00,2,44070,0,0.00,2,2,0,2,41174,50000,2383,43289,0,0,0,0,0.00,0.00,0.00,0.00
2014-05-28 12:40:00,2,43895,0,0.00,2,2,0,2,35395,50000,3925,43666,0,0,0,0,0.00,0.00,0.00,0.00
2014-05-28 12:50:00,2,40195,0,0.00,2,2,0,2,36745,47002,2943,39720,0,0,0,0,0.00,0.00,0.00,0.00
2014-05-28 13:00:00,2,42643,0,0.00,2,2,0,2,31082,50000,6351,43291,0,0,0,0,0.00,0.00,0.00,0.00
2014-05-28 13:10:00,2,47337,0,0.00,2,2,0,2,37102,50000,4063,50000,0,0,0,0,0.00,0.00,0.00,0.00
2014-05-28 13:20:00,2,43219,0,0.00,2,2,0,2,37086,48297,3518,43572,0,0,0,0,0.00,0.00,0.00,0.00
2014-05-28 13:30:00,2,42291,0,0.00,2,2,0,2,35242,50000,5302,43214,0,0,0,0,0.00,0.00,0.00,0.00
2014-05-28 13:40:00,2,42664,0,0.00,2,2,0,2,36171,49038,3723,42482,0,0,0,0,0.00,0.00,0.00,0.00
2014-05-28 13:50:00,2,41863,0,0.00,2,2,0,2,35417,50000,5079,41704,0,0,0,0,0.00,0.00,0.00,0.00
2014-05-28 14:00:00,2,41694,0,0.00,2,2,0,2,33619,50000,5878,42463,0,0,0,0,0.00,0.00,0.00,0.00
2014-05-28 14:10:00,2,45655,0,0.00,2,2,0,2,41985,50000,2816,46004,0,0,0,0,0.00,0.00,0.00,0.00
2014-05-28 14:20:00,2,45988,0,0.00,2,2,0,2,39976,50000,3021,46074,0,0,0,0,0.00,0.00,0.00,0.00
2014-05-28 14:30:00,2,29765,0,0.00,2,2,0,2,16016,47971,10942,27580,0,0,0,0,0.00,0.00,0.00,0.00
2014-05-28 14:40:00,2,39992,0,0.00,2,2,0,2,19956,50000,10483,43808,0,0,0,0,0.00,0.00,0.00,0.00
2014-05-28 14:50:00,2,38936,0,0.00,2,2,0,2,30927,45531,4460,38455,0,0,0,0,0.00,0.00,0.00,0.00
2014-05-28 15:00:00,2,37747,0,0.00,2,2,0,2,19944,49512,9337,42433,0,0,0,0,0.00,0.00,0.00,0.00
2014-05-28 15:10:00,2,31357,0,0.00,2,2,0,2,23951,45080,5438,30941,0,0,0,0,0.00,0.00,0.00,0.00
2014-05-28 15:20:00,2,31700,0,0.00,2,2,0,2,22528,39135,5535,32666,0,0,0,0,0.00,0.00,0.00,0.00
2014-05-28 15:30:00,2,40611,0,0.00,2,2,0,2,33657,50000,6074,38438,0,0,0,0,0.00,0.00,0.00,0.00
2014-05-28 15:40:00,2,28633,0,0.00,2,2,0,2,9408,43922,10899,29939,0,0,0,0,0.00,0.00,0.00,0.00
2014-05-28 15:50:00,2,27562,0,0.00,2,2,0,2,19141,33620,4446,29014,0,0,0,0,0.00,0.00,0.00,0.00
2014-05-28 16:00:00,2,21457,0,0.00,2,2,0,2,8920,38556,11133,19626,0,0,0,0,0.00,0.00,0.00,0.00
2014-05-28 16:10:00,2,21418,0,0.00,2,2,0,2,11779,31484,7709,18390,0,0,0,0,0.00,0.00,0.00,0.00
2014-05-28 16:20:00,2,28884,0,0.00,2,2,0,2,12049,40657,10462,32310,0,0,0,0,0.00,0.00,0.00,0.00
2014-05-28 16:30:00,2,33627,0,0.00,2,2,0,2,9112,47846,11909,38150,0,0,0,0,0.00,0.00,0.00,0.00
2014-05-28 16:40:00,2,29851,0,0.00,2,2,0,2,10704,42633,8297,30390,0,0,0,0,0.00,0.00,0.00,0.00
2014-05-28 16:50:00,2,21845,0,0.00,2,2,0,2,10183,33374,7085,22656,0,0,0,0,0.00,0.00,0.00,0.00
2014-05-28 17:00:00,2,27991,0,0.00,2,2,0,2,12900,40474,11482,33144,0,0,0,0,0.00,0.00,0.00,0.00
2014-05-28 17:10:00,2,24771,0,0.00,2,2,0,2,19232,28051,2686,24928,0,0,0,0,0.00,0.00,0.00,0.00
2014-05-28 17:20:00,2,32310,0,0.00,2,2,0,2,24559,41810,5137,31664,0,0,0,0,0.00,0.00,0.00,0.00
2014-05-28 17:30:00,2,28895,0,0.00,2,2,0,2,20625,36254,4536,29156,0,0,0,0,0.00,0.00,0.00,0.00
2014-05-28 17:40:00,2,26820,0,0.00,2,2,0,2,12337,44011,9554,26268,0,0,0,0,0.00,0.00,0.00,0.00
2014-05-28 17:50:00,2,28886,0,0.00,2,2,0,2,17262,40047,6573,27746,0,0,0,0,0.00,0.00,0.00,0.00
2014-05-28 18:00:00,2,26874,0,0.00,2,2,0,2,15015,32367,4822,29321,0,0,0,0,0.00,0.00,0.00,0.00
2014-05-28 18:10:00,2,34418,0,0.00,2,2,0,2,29692,39912,3865,33908,0,0,0,0,0.00,0.00,0.00,0.00
2014-05-28 18:20:00,2,31173,0,0.00,2,2,0,2,20723,44481,7032,31158,0,0,0,0,0.00,0.00,0.00,0.00
2014-05-28 18:30:00,2,20983,38,0.01,2,2,0,2,15268,29974,4537,19458,0,77,28,40,0.00,0.05,0.02,0.00
2014-05-28 18:40:00,2,13155,76,0.06,2,2,0,2,10526,19157,2495,12072,71,77,2,77,0.00,0.15,0.05,0.05
2014-05-28 18:50:00,2,25573,74,0.00,2,2,0,2,21255,28529,1992,25862,71,77,3,74,0.00,0.00,0.00,0.00
2014-05-28 19:00:00,2,23722,75,0.00,2,2,0,2,16754,33671,5706,22660,71,77,3,77,0.00,0.00,0.00,0.00
2014-05-28 19:10:00,2,32381,22,0.00,2,2,0,2,23615,42218,6728,31900,0,77,33,0,0.00,0.00,0.00,0.00
2014-05-28 19:20:00,2,44187,0,0.00,2,2,0,2,33019,50000,5552,45206,0,0,0,0,0.00,0.00,0.00,0.00
2014-05-28 19:30:00,2,30794,21,0.00,2,2,0,2,15397,47130,8915,32138,0,71,33,0,0.00,0.00,0.00,0.00
2014-05-28 19:40:00,2,10885,76,0.06,2,2,0,2,6711,16312,3281,10034,71,77,2,77,0.00,0.25,0.07,0.05
2014-05-28 19:50:00,2,5250,75,0.40,2,2,0,2,3430,7381,1348,5303,71,77,3,77,0.10,0.95,0.29,0.28
2014-05-28 20:00:00,2,4084,71,0.86,2,2,0,2,2540,5410,1044,4218,71,71,0,71,0.50,1.55,0.32,0.78
2014-05-28 20:10:00,2,6899,71,0.47,2,2,0,2,5604,8147,887,6796,71,71,0,71,0.20,0.90,0.22,0.42
2014-05-28 20:20:00,2,7272,71,0.34,2,2,0,2,6309,8836,781,7161,71,71,0,71,0.10,0.75,0.22,0.28
2014-05-28 20:30:00,2,7661,71,0.35,2,2,0,2,5975,9484,1024,7668,71,71,0,71,0.20,0.65,0.15,0.28
2014-05-28 20:40:00,2,7074,74,0.35,2,2,0,2,3063,11845,3216,7388,71,77,3,74,0.05,0.85,0.29,0.30
2014-05-28 20:50:00,2,2450,77,0.74,2,2,0,2,1969,3249,376,2458,77,77,0,77,0.40,1.00,0.18,0.75
2014-05-28 21:00:00,2,1910,77,0.93,2,2,0,2,1466,3017,504,1714,77,77,0,77,0.55,1.20,0.25,1.02
2014-05-28 21:10:00,2,2995,73,0.68,2,2,0,2,2501,3769,432,2880,71,77,3,71,0.45,0.90,0.16,0.65
2014-05-28 21:20:00,2,1876,72,1.53,2,2,0,2,1443,2955,463,1708,71,77,2,71,0.50,2.50,0.63,1.73
2014-05-28 21:30:00,2,3818,72,0.39,2,2,0,2,2228,5790,1104,3768,71,77,2,71,0.10,1.35,0.38,0.20
2014-05-28 21:40:00,2,5075,77,0.28,2,2,0,2,3516,7406,1164,4720,77,77,0,77,0.10,0.60,0.15,0.25
2014-05-28 21:50:00,2,3362,73,0.55,2,2,0,2,2850,4225,476,3210,71,77,3,71,0.25,0.90,0.22,0.53
2014-05-28 22:00:00,2,2489,73,0.60,2,2,0,2,1820,3179,491,2436,71,77,3,71,0.30,1.05,0.26,0.60
2014-05-28 22:10:00,2,2631,73,0.61,2,2,0,2,2217,3076,243,2620,71,77,3,71,0.35,0.85,0.15,0.65
2014-05-28 22:20:00,2,2416,71,0.91,2,2,0,2,1916,2990,373,2510,71,71,0,71,0.30,1.45,0.36,0.80
2014-05-28 22:30:00,2,3044,73,0.62,2,2,0,2,1950,5092,997,2732,71,77,3,71,0.30,1.10,0.29,0.57
2014-05-28 22:40:00,2,2027,74,1.02,2,2,0,2,1664,2701,348,1825,71,77,3,74,0.70,1.35,0.23,1.05
2014-05-28 22:50:00,2,1764,71,1.65,2,2,0,2,1152,3137,535,1636,71,71,0,71,0.50,3.00,0.66,1.77
2014-05-28 23:00:00,2,1968,71,1.44,2,2,0,2,1257,2564,432,2123,71,71,0,71,0.40,3.90,1.05,1.00
2014-05-28 23:10:00,2,1577,71,4.16,2,2,0,2,1028,2760,613,1300,71,71,0,71,0.65,8.50,2.59,5.03
2014-05-28 23:20:00,2,2806,71,0.68,2,2,0,2,2468,3228,251,2812,71,71,0,71,0.40,0.95,0.18,0.68
2014-05-28 23:30:00,2,3083,71,0.70,2,2,0,2,2316,4098,607,2823,71,71,0,71,0.35,1.30,0.26,0.68
2014-05-28 23:40:00,2,4098,71,0.31,2,2,0,2,2791,5119,768,4071,71,71,0,71,0.05,0.75,0.19,0.30
2014-05-28 23:50:00,2,2917,71,0.59,2,2,0,2,2298,3839,513,2918,71,71,0,71,0.10,1.30,0.42,0.40
